Location: Beuda
(42.2386°N, 2.7089°E)
Time: 19:06:42
(UTC+00:00)

Daily predictions for brighter satellites

Satellite Brightness Start Highest point End
(mag) Time Altitude Azimuth Time Altitude Azimuth Time Altitude Azimuth
Hubble Space Telescope 3.3 18:15:22 10° S 18:15:43 10° S 18:16:02 10° SSE
Meteor 1-19 Rocket 4.5 18:09:50 10° NNW 18:15:43 81° W 18:21:23 10° S
ERS-2 2.8 18:13:07 10° NNE 18:16:27 33° E 18:19:47 10° SSE
CZ-2C R/B 3.3 18:12:03 10° NNE 18:16:54 33° E 18:21:37 10° SSE
Cosmos 1689 Rocket 2.7 18:15:21 10° NNE 18:17:59 31° E 18:20:36 10° SSE
NOSS 3-2 (A) 4.1 18:15:53 10° S 18:20:32 28° ESE 18:25:37 10° NE
CREW DRAGON DEMO-1 DEB 2.7 18:18:06 10° SW 18:20:52 58° SE 18:23:39 10° ENE
H-2A R/B 4.2 18:18:48 10° N 18:22:22 29° WNW 18:25:58 10° SW
HJ-1C 4.0 18:19:35 10° SE 18:22:36 33° ENE 18:25:37 10° N
COSMOS 2428 3.1 18:17:30 10° S 18:22:46 41° ESE 18:28:03 10° NE
SL-16 R/B 4.2 18:21:15 10° WSW 18:26:08 29° NW 18:31:03 10° N
Cosmos 1470 Rocket 4.4 18:24:18 10° SSW 18:28:41 57° W 18:33:04 10° N
SL-8 Rocket 4.1 18:26:04 10° SSE 18:32:03 52° E 18:38:02 10° NNE
CENTAUR R/B 3.4 18:27:56 10° SSE 18:32:19 23° ESE 18:37:15 10° ENE
ATLAS CENTAUR R/B 3.5 18:31:24 10° W 18:34:16 21° NW 18:37:10 10° N
Cosmos 962 Rocket 4.5 18:29:34 10° S 18:35:47 82° E 18:42:07 10° N
Cosmos 1743 4.3 18:36:38 10° ESE 18:38:55 15° E 18:41:14 10° NE
Cosmos 1666 2.5 18:36:49 10° S 18:40:30 76° E 18:44:15 10° N
Cosmos 2322 3.8 18:37:52 10° SSW 18:43:37 89° WNW 18:49:22 10° NNE
CSL-04 Rocket 3.8 18:38:36 10° SSE 18:44:01 60° ENE 18:49:25 10° N
Cosmos 1703 Rocket 3.5 18:40:19 10° N 18:44:43 87° E 18:49:03 10° S
Cosmos 1339 Rocket 4.5 18:40:42 10° N 18:46:55 66° E 18:53:12 10° SSE
Okean-O 2.8 18:42:47 10° S 18:47:13 78° WSW 18:51:40 10° NNW
BREEZE-M DEB (TANK) 2.4 18:46:03 10° SW 18:48:29 65° SSE 18:50:06 20° ENE
Cosmos 1844 Rocket 3.4 18:43:06 10° NNW 18:48:33 55° WSW 18:53:58 10° S
Cosmos 2366 rocket 4.1 18:44:06 10° S 18:50:16 59° E 18:56:30 10° NNE
H-2A R/B 2.6 18:45:49 10° S 18:51:13 65° W 18:56:38 10° NNW
CSL-04 Debris 4.1 18:46:12 10° SSE 18:51:37 75° ENE 18:57:06 10° N
ASTEX 1 4.1 18:48:48 10° NNE 18:53:07 31° E 18:57:25 10° SSE
Cosmos 1777 Rocket 3.9 18:47:56 10° NNW 18:53:12 80° ENE 18:58:24 10° SSE
SJ-6B 3.9 18:52:45 20° ESE 18:54:18 25° ENE 18:57:37 10° NNE
Ariane Rocket 4.0 18:55:34 19° ESE 18:57:56 27° ENE 19:02:10 10° N
USA 186 3.0 18:59:37 19° NE 18:59:37 19° NE 19:00:46 10° NNE
Cosmos 2221 Rocket 4.3 18:56:11 10° NNE 19:00:09 31° ENE 19:02:10 22° ESE
OBJECT-B 2.5 19:02:10 18° NE 19:02:10 18° NE 19:03:43 10° NNE
NOSS 3-2 (C) 3.8 18:57:17 10° S 19:02:10 34° ESE 19:07:35 10° NE
Meteor 1-11 Rocket 3.6 18:58:33 10° S 19:04:14 77° E 19:09:49 10° NNE
YAOGAN 1 3.9 19:04:06 10° S 19:08:11 41° W 19:12:18 10° NNW
Cosmos 2360 Rocket 4.1 19:03:21 10° WSW 19:08:15 30° NW 19:13:12 10° N
Okean 1-7 3.9 19:04:33 10° NNW 19:08:48 53° W 19:12:58 10° S
FALCON 9 DEB 3.6 19:10:25 10° NW 19:13:25 37° NNE 19:13:45 36° NE
Cosmos 1821 Rocket 4.4 19:08:56 10° SSE 19:14:36 39° E 19:20:14 10° NNE
Cosmos 1943 Rocket 4.3 19:14:00 10° NNE 19:14:51 10° NE 19:15:25 10° NE
Cosmos 2237 Rocket 2.5 19:09:53 10° S 19:15:10 41° ESE 19:20:28 10° NE
Meteor 1-13 Rocket 4.4 19:10:19 10° NNW 19:16:15 81° W 19:22:02 10° S
Cosmos 1544 3.3 19:13:02 10° SSE 19:16:30 44° E 19:20:01 10° NNE
SJ 16-02 1.5 19:13:19 10° N 19:17:39 52° ENE 19:19:19 33° SE
Cosmos 1727 Rocket 3.9 19:12:09 10° N 19:18:18 62° E 19:24:27 10° SSE
Cosmos 1536 2.8 19:14:52 10° S 19:18:51 83° W 19:22:52 10° N
DMSP B5D2-2 3.9 19:14:08 10° NNE 19:19:23 77° ESE 19:24:34 10° S
Cosmos 2278 Rocket 2.4 19:14:16 10° NNW 19:19:46 49° ENE 19:22:11 30° ESE
USA 81 4.4 19:15:36 10° SSE 19:20:27 40° E 19:25:20 10° NNE
FALCON 9 DEB 3.2 19:18:14 10° NW 19:21:20 48° NNE 19:21:22 48° NE
SL-4 R/B 1.9 19:18:35 10° WNW 19:22:01 58° SW 19:22:57 40° SSE
Okean 3 3.6 19:17:47 10° N 19:22:04 79° W 19:26:21 10° S
Cosmos 2218 Rocket 4.3 19:18:12 10° SSW 19:24:35 75° W 19:31:00 10° N
SeaSat 1 2.4 19:21:12 10° NNE 19:26:10 87° WNW 19:31:06 10° SSW
Abrixas rocket 2.8 19:25:02 10° WNW 19:26:46 40° WNW 19:26:46 40° WNW
MetOp-A 4.0 19:23:10 10° SSE 19:28:30 79° ENE 19:33:53 10° N
Resurs 01 Rocket 3.4 19:31:41 18° NE 19:31:41 18° NE 19:33:29 10° NNE
SME Rocket 3.6 19:27:08 10° NNE 19:33:59 72° ESE 19:38:34 10° S
Helios 1A Rocket 4.5 19:30:16 10° SSW 19:33:59 35° W 19:37:44 10° NNW
Meteor 2-20 Rocket 4.5 19:28:23 10° N 19:34:24 54° ENE 19:37:09 31° SE
Cosmos 2333 Rocket 3.6 19:30:25 10° SW 19:35:43 40° WNW 19:41:06 10° NNE
Gbstr 26 Del rocket 4.0 19:32:18 10° NW 19:36:54 44° NNE 19:38:19 37° ENE
USA 234 3.3 19:33:09 24° ENE 19:37:13 57° SE 19:43:37 10° SSW
Lacrosse 4 Rocket 3.6 19:33:50 10° WSW 19:37:35 27° NW 19:41:26 10° N
Cosmos 1937 Rocket 4.5 19:35:58 10° N 19:39:50 29° NE 19:39:50 29° NE
USA 238 DEB 3.5 19:35:19 10° SSW 19:41:51 90° SE 19:48:43 10° NE
USA 238 3.5 19:35:26 10° SSW 19:41:58 89° ESE 19:48:50 10° NE
Resurs 1-3 4.1 19:45:27 45° NE 19:45:27 45° NE 19:48:57 10° N
DELTA 2 R/B (1) 3.6 19:40:00 10° WSW 19:45:30 67° S 19:46:36 53° ESE
IRS-1A Rocket 4.1 19:46:16 35° SSE 19:48:46 79° ENE 19:54:19 10° NNW
FALCON 9 DEB 4.3 19:46:51 10° NW 19:48:55 38° WNW 19:48:55 38° WNW
Cosmos 2219 Rocket 3.8 19:46:59 10° WSW 19:52:00 33° WNW 19:57:05 10° N
Cosmos 1238 Rocket 4.1 19:50:25 10° SSW 19:54:22 39° W 19:57:43 10° N
Hubble Space Telescope 3.4 19:54:36 10° SSW 19:54:55 11° SSW 19:54:55 11° SSW
CZ-2C R/B 4.3 19:52:20 10° N 19:57:08 33° WNW 20:01:49 10° SW
USA 305 3.8 19:55:23 10° NW 19:58:46 41° N 19:58:46 41° N
Cosmos 1980 3.7 19:54:11 10° SSW 19:59:49 82° WNW 20:05:31 10° NNE
Cosmos 1733 Rocket 3.4 19:57:19 10° SSW 20:01:37 64° W 20:05:58 10° N
COSMOS 2428 4.4 20:02:06 10° WSW 20:07:07 31° NW 20:12:10 10° N
NOSS 3-2 (A) 4.2 20:05:29 10° WSW 20:10:56 49° NW 20:17:11 10° NNE
USA 307 4.1 20:09:08 10° NW 20:12:00 37° NNW 20:12:00 37° NNW
Cosmos 1743 4.3 20:10:46 10° SW 20:14:21 35° WNW 20:17:57 10° N
USA 306 4.1 20:10:22 10° NW 20:13:13 37° NNW 20:13:13 37° NNW
Cosmos 2369 Rocket 4.2 20:16:15 10° N 20:18:00 15° NNE 20:18:00 15° NNE
Cosmos 1898 Rocket 3.7 20:14:58 10° NNW 20:19:30 67° NNW 20:19:30 67° NNW
CENTAUR R/B 2.9 20:16:25 10° SW 20:22:11 62° NW 20:29:07 10° NNE
USA 308 4.4 20:19:55 10° NW 20:22:24 33° NW 20:22:24 33° NW
OBJECT-B 4.1 20:35:13 13° NW 20:35:13 13° NW 20:35:45 10° NW
Ariane Rocket 4.2 20:35:45 35° WSW 20:36:42 38° W 20:41:28 10° NNW
Cosmos 1763 Rocket 4.4 20:36:45 10° SW 20:41:50 46° WNW 20:46:58 10° N
NOSS 3-2 (C) 4.4 20:47:27 10° WSW 20:52:49 43° NW 20:55:55 26° N
SJ 16-02 4.1 20:53:25 10° WNW 20:55:44 14° W 20:56:21 14° WSW
Cosmos 2237 Rocket 3.8 20:54:16 10° WSW 20:59:18 31° NW 21:04:22 10° N
Cosmos 1943 Rocket 3.8 20:54:23 10° NNW 20:56:57 27° N 20:56:57 27° N
Cosmos 2278 Rocket 4.0 20:59:01 10° NW 21:03:30 24° WSW 21:04:05 24° WSW
Resurs 01 Rocket 4.3 21:09:15 17° NW 21:09:15 17° NW 21:10:25 10° NNW
USA 234 4.0 21:20:31 48° NW 21:20:31 48° NW 21:26:21 10° WSW
